Torna al catalogo

IRIDIUM 180

AttivoComunicazioniPO
NORAD 43922·PAYLOAD·🇺🇸 United States

Lanciato Jan 11, 2019 da Vandenberg Space Force Base

Loading…

Prossimi Passaggi (prossime 24 ore)

TLE

AggiornatoSource: CelesTrak SupGP

Epoca: Sep 14, 2026, 09:18 UTC

1 43922C 19002A   26257.38784722 -.00002672  00000+0 -95526-3 0  2570
2 43922  86.3977 316.3320 0002260  97.4081 355.3671 14.34218993    14

Traccia IRIDIUM 180 in tempo reale con AllMySat

Download on the App Store